[[{"header":{"parameterUnit":"m.s-1","parameterCategory":2,"la1":30.2992,"la2":30.254,"lo1":-89.0895,"lo2":-89.0443,"dy":0.0025,"dx":0.0025,"nx":19,"ny":19,"refTime":"2026-03-12T03:00:00:Z","depth":"0","parameterNumber":2,"parameterNumberName":"U-component_of_CURRENTS"},"data":[0,0,0,0.3696,0.3697,0.3717,0.3717,0.3715,0.3716,0,0,0,0,0,0,0,0,0,0,0,0.3677,0.3677,0.3696,0.3697,0.3717,0.3717,0.3715,0.3716,0,0,0,0,0,0,0,0,0,0,0,0.3676,0.3677,0.3677,0.3698,0.3718,0.3717,0.3715,0.3702,0,0,0,0,0,0,0,0,0,0,0.3683,0.3676,0.3677,0.3677,0.3698,0.3718,0.3717,0.3701,0.3703,0.3706,0,0.3717,0,0.3732,0.3717,0.3717,0,0,0,0.3675,0.3675,0.3689,0.3677,0.3699,0.3718,0.3702,0.3702,0.3704,0.3708,0.3717,0.3717,0.3732,0.3717,0.3717,0.3795,0.3795,0,0,0.3674,0.367,0.3688,0.369,0.3714,0.3702,0.3703,0.3703,0.3704,0.3717,0.3718,0.3732,0.3717,0.3717,0.3794,0.3795,0,0,0,0.3686,0.3669,0.3682,0.3689,0.3704,0.3703,0.3704,0.3703,0.3711,0.3718,0.3732,0.3717,0.3718,0.3793,0.3794,0.3871,0,0,0,0.3684,0.3678,0.3682,0.3678,0.3705,0.3709,0.3704,0.371,0.3711,0.3732,0.3717,0.3718,0.3792,0.3794,0.3868,0.3866,0,0,0,0.3674,0.3677,0.3684,0.3678,0.3699,0.3709,0.3715,0.371,0.3721,0.3717,0.3718,0.3792,0.3794,0.3864,0.3861,0.4003,0,0,0,0.3661,0.3683,0.3684,0.3713,0.3699,0.3742,0.3715,0.3729,0.3728,0.3717,0.3793,0.3794,0.3863,0.3858,0.3998,0.4085,0.4113,0,0,0.3683,0.3685,0.3703,0.3706,0.375,0.3737,0.3794,0.3773,0.3757,0.3785,0.3787,0.3869,0.3861,0.4002,0.4181,0.4207,0,0,0,0.3707,0.3718,0.3732,0.3757,0.3784,0.3816,0.3816,0.3828,0.3854,0.3771,0.3881,0.3873,0.3961,0.4003,0.4024,0.4203,0.3802,0.3802,0.3802,0.372,0.3739,0.3769,0.38,0.383,0.3873,0.3904,0.3924,0.391,0.3942,0.3947,0.4112,0.4158,0.4174,0.4358,0.3978,0.3978,0.3979,0.3979,0.3752,0.3764,0.3792,0.3825,0.3867,0.3912,0.3987,0.4001,0.4104,0.4034,0.4119,0.4093,0.4202,0.4389,0.3984,0.3983,0.3983,0.3982,0.3982,0.375,0.3757,0.3778,0.3829,0.3879,0.3937,0.4053,0.4116,0.4153,0.422,0.4336,0.4335,0.4495,0.4307,0.4307,0.4308,0.4309,0.4309,0.4309,0.3732,0.3755,0.3781,0.3839,0.3869,0.3965,0.4116,0.4215,0.4376,0.4413,0.4415,0.4584,0.4213,0.4194,0.4319,0.4318,0.4316,0.4315,0.4315,0.3714,0.3731,0.3778,0.381,0.3901,0.398,0.4179,0.4438,0.4569,0.4657,0.4879,0.4549,0.4542,0.4525,0.4514,0.4715,0.4715,0.4715,0.4715,0.3693,0.371,0.376,0.381,0.3893,0.3984,0.419,0.4475,0.4873,0.5081,0.5146,0.5106,0.5082,0.5103,0.5073,0.5071,0.5409,0.541,0.5411,0.3675,0.3708,0.3727,0.379,0.3866,0.396,0.4119,0.4493,0.5131,0.5455,0.5391,0.5362,0.531,0.5256,0.5281,0.5225,0.5216,0,0]},{"header":{"parameterUnit":"m.s-1","parameterCategory":2,"la1":30.2992,"la2":30.254,"lo1":-89.0895,"lo2":-89.0443,"dy":0.0025,"dx":0.0025,"nx":19,"ny":19,"refTime":"2026-03-12T03:00:00:Z","depth":"0","parameterNumber":3,"parameterNumberName":"V-component_of_CURRENTS"},"data":[0,0,0,-0.0114,-0.0114,-0.0126,-0.0126,-0.0173,-0.0174,0,0,0,0,0,0,0,0,0,0,0,-0.0109,-0.0109,-0.0114,-0.0114,-0.0126,-0.0126,-0.0173,-0.0174,0,0,0,0,0,0,0,0,0,0,0,-0.0109,-0.0109,-0.0109,-0.0114,-0.0126,-0.0126,-0.0173,-0.0158,0,0,0,0,0,0,0,0,0,0,-0.0144,-0.0137,-0.0109,-0.0109,-0.0114,-0.0125,-0.0126,-0.0157,-0.0159,-0.0175,0,-0.0168,0,-0.0169,-0.0177,-0.0177,0,0,0,-0.0123,-0.0136,-0.0131,-0.0109,-0.0114,-0.0125,-0.0123,-0.0158,-0.016,-0.0177,-0.0169,-0.017,-0.017,-0.0177,-0.0177,-0.0138,-0.0137,0,0,-0.0122,-0.0122,-0.013,-0.0132,-0.0107,-0.0123,-0.0123,-0.0159,-0.0162,-0.0169,-0.0171,-0.0171,-0.0177,-0.0178,-0.0139,-0.0138,0,0,0,-0.0115,-0.0121,-0.0116,-0.0131,-0.0128,-0.0123,-0.0123,-0.0161,-0.0157,-0.0172,-0.0172,-0.0178,-0.0178,-0.014,-0.0139,-0.0006,0,0,0,-0.0115,-0.0116,-0.0115,-0.0117,-0.0127,-0.0142,-0.0124,-0.0154,-0.0158,-0.0171,-0.0178,-0.0179,-0.0141,-0.0139,-0.0012,0.0064,0,0,0,-0.0111,-0.0116,-0.0112,-0.0116,-0.0117,-0.0141,-0.0139,-0.0155,-0.0158,-0.0177,-0.0179,-0.0141,-0.0139,-0.0017,0.0055,0.0127,0,0,0,-0.0117,-0.0071,-0.0112,-0.0056,-0.0116,-0.0057,-0.0139,-0.0123,-0.013,-0.0178,-0.014,-0.0139,-0.0018,0.0049,0.0122,0.025,0.0286,0,0,-0.0052,-0.0064,-0.0025,-0.006,0.0014,-0.0057,0.0021,-0.0041,-0.0109,-0.0135,-0.0134,-0.001,0.0054,0.0126,0.0356,0.039,0,0,0,0.0002,0.0033,0.0047,0.0077,0.0088,0.012,0.0061,0.0026,-0.0003,-0.0104,-0.0009,0.0027,0.0068,0.0133,0.016,0.0005,-0.013,-0.013,-0.013,0.0088,0.0108,0.0187,0.022,0.0252,0.0235,0.0246,0.019,0.01,0.0103,0.0135,0.0283,0.0354,0.0375,0.0214,0.0124,0.0125,0.0125,0.0125,0.022,0.0283,0.0307,0.0388,0.0407,0.0459,0.0431,0.0367,0.0363,0.0258,0.0291,0.027,0.0413,0.0229,0.0134,0.0132,0.0131,0.0131,0.013,0.0291,0.033,0.0371,0.0494,0.0586,0.0597,0.0713,0.0625,0.05,0.0535,0.0572,0.0571,0.0408,0.0541,0.0542,0.0542,0.0543,0.0543,0.0544,0.0346,0.0398,0.0499,0.0615,0.0708,0.083,0.0875,0.0895,0.0843,0.0746,0.0746,0.0457,0.0409,0.0392,0.0554,0.0552,0.0551,0.055,0.0549,0.0446,0.0459,0.062,0.0721,0.0952,0.1209,0.1221,0.1304,0.1242,0.1231,0.0796,0.0847,0.0817,0.0795,0.0786,0.1041,0.1041,0.1041,0.1042,0.0502,0.0524,0.0739,0.0921,0.1164,0.1379,0.174,0.1759,0.137,0.1137,0.0907,0.0812,0.0799,0.0757,0.0736,0.072,0.0953,0.0952,0.0952,0.0571,0.063,0.0793,0.097,0.1256,0.1613,0.2042,0.2237,0.1549,0.0922,0.0666,0.067,0.0494,0.0486,0.0383,0.0366,0.0326,0,0]}],[{"header":{"parameterUnit":"m.s-1","parameterCategory":2,"la1":30.2992,"la2":30.254,"lo1":-89.0895,"lo2":-89.0443,"dy":0.0025,"dx":0.0025,"nx":19,"ny":19,"refTime":"2026-03-12T03:00:00:Z","depth":"2","parameterNumber":2,"parameterNumberName":"U-component_of_CURRENTS"},"data":[0,0,0,0.3674,0.3675,0.3694,0.3694,0.369,0.369,0,0,0,0,0,0,0,0,0,0,0,0.3654,0.3655,0.3673,0.3675,0.3694,0.3694,0.369,0.369,0,0,0,0,0,0,0,0,0,0,0,0.3654,0.3655,0.3655,0.3675,0.3694,0.3694,0.369,0.3677,0,0,0,0,0,0,0,0,0,0,0.366,0.3653,0.3655,0.3655,0.3675,0.3694,0.3694,0.3676,0.3678,0.368,0,0.3691,0,0.3706,0.3691,0.3691,0,0,0,0.3652,0.3652,0.3665,0.3655,0.3676,0.3694,0.3679,0.3677,0.3679,0.3682,0.3691,0.3692,0.3706,0.3691,0.3691,0.3766,0.3767,0,0,0.3651,0.3647,0.3664,0.3667,0.3692,0.3678,0.368,0.3678,0.3679,0.3691,0.3692,0.3706,0.3691,0.3691,0.3765,0.3766,0,0,0,0.3663,0.3647,0.366,0.3666,0.3681,0.368,0.3681,0.3678,0.3686,0.3692,0.3706,0.3691,0.3691,0.3764,0.3765,0.3843,0,0,0,0.3662,0.3656,0.3659,0.3656,0.3681,0.3685,0.3681,0.3685,0.3686,0.3706,0.3691,0.3692,0.3764,0.3765,0.3839,0.3837,0,0,0,0.3652,0.3655,0.3662,0.3656,0.3677,0.3685,0.3691,0.3685,0.3696,0.3691,0.3692,0.3763,0.3765,0.3836,0.3833,0.3972,0,0,0,0.3639,0.3661,0.3662,0.369,0.3677,0.3717,0.3691,0.3704,0.3702,0.3691,0.3764,0.3765,0.3835,0.383,0.3968,0.3986,0.4008,0,0,0.3661,0.3663,0.3681,0.3683,0.3725,0.3712,0.3767,0.3747,0.3731,0.3756,0.3758,0.384,0.3832,0.3971,0.408,0.41,0,0,0,0.3684,0.3695,0.3708,0.3732,0.3758,0.3789,0.3789,0.38,0.3825,0.3744,0.3852,0.3844,0.393,0.3931,0.3948,0.3773,0.3773,0.3773,0.3773,0.3697,0.3715,0.3744,0.3775,0.3803,0.3845,0.3875,0.3894,0.388,0.3912,0.3918,0.408,0.4082,0.4094,0.3947,0.3948,0.3948,0.3948,0.3949,0.3729,0.3741,0.3767,0.3799,0.384,0.3884,0.3956,0.397,0.4072,0.4003,0.4087,0.4022,0.4116,0.3955,0.3954,0.3953,0.3952,0.3952,0.3951,0.3727,0.3734,0.3754,0.3804,0.3853,0.391,0.4024,0.4085,0.4121,0.4187,0.4257,0.4255,0.4142,0.4273,0.4274,0.4274,0.4275,0.4275,0.4276,0.371,0.3732,0.3759,0.3815,0.3845,0.3939,0.4087,0.4183,0.4313,0.4326,0.4328,0.4191,0.418,0.4162,0.4286,0.4284,0.4283,0.4282,0.4281,0.3693,0.371,0.3757,0.3789,0.3878,0.3805,0.4108,0.4334,0.4493,0.4558,0.4438,0.4431,0.4417,0.4402,0.4389,0.4565,0.4565,0.4565,0.4565,0.3672,0.369,0.3741,0.379,0.3871,0.3763,0.3732,0.3751,0.4016,0.4047,0.4066,0.3931,0.3936,0.3884,0.3881,0.3852,0.3887,0.3885,0.3882,0.3655,0.3689,0.3708,0.377,0.3845,0.3587,0.3232,0.2898,0.3243,0.3828,0.3662,0.4575,0.4432,0.4417,0.4377,0.4357,0.4327,0,0]},{"header":{"parameterUnit":"m.s-1","parameterCategory":2,"la1":30.2992,"la2":30.254,"lo1":-89.0895,"lo2":-89.0443,"dy":0.0025,"dx":0.0025,"nx":19,"ny":19,"refTime":"2026-03-12T03:00:00:Z","depth":"2","parameterNumber":3,"parameterNumberName":"V-component_of_CURRENTS"},"data":[0,0,0,-0.0082,-0.0082,-0.0092,-0.0093,-0.0138,-0.0139,0,0,0,0,0,0,0,0,0,0,0,-0.0077,-0.0077,-0.0082,-0.0082,-0.0092,-0.0093,-0.0138,-0.0139,0,0,0,0,0,0,0,0,0,0,0,-0.0077,-0.0077,-0.0077,-0.0082,-0.0092,-0.0093,-0.0138,-0.0124,0,0,0,0,0,0,0,0,0,0,-0.0111,-0.0104,-0.0077,-0.0077,-0.0082,-0.0092,-0.0093,-0.0123,-0.0125,-0.014,0,-0.0133,0,-0.0135,-0.0142,-0.0142,0,0,0,-0.009,-0.0103,-0.0098,-0.0077,-0.0082,-0.0092,-0.009,-0.0124,-0.0126,-0.0143,-0.0134,-0.0136,-0.0135,-0.0142,-0.0142,-0.0102,-0.0101,0,0,-0.009,-0.0089,-0.0097,-0.0099,-0.0075,-0.009,-0.009,-0.0125,-0.0128,-0.0134,-0.0137,-0.0136,-0.0142,-0.0143,-0.0102,-0.0102,0,0,0,-0.0082,-0.0089,-0.0084,-0.0097,-0.0095,-0.009,-0.0091,-0.0127,-0.0122,-0.0137,-0.0137,-0.0143,-0.0143,-0.0103,-0.0102,0.0029,0,0,0,-0.0082,-0.0084,-0.0083,-0.0085,-0.0094,-0.0108,-0.0092,-0.012,-0.0124,-0.0137,-0.0143,-0.0144,-0.0104,-0.0103,0.0024,0.0099,0,0,0,-0.0078,-0.0084,-0.008,-0.0084,-0.0084,-0.0107,-0.0106,-0.0121,-0.0124,-0.0142,-0.0144,-0.0105,-0.0103,0.0019,0.009,0.0162,0,0,0,-0.0085,-0.0039,-0.008,-0.0023,-0.0084,-0.0023,-0.0106,-0.0089,-0.0095,-0.0143,-0.0104,-0.0102,0.0017,0.0085,0.0156,0.0275,0.0311,0,0,-0.002,-0.0032,0.0008,-0.0028,0.0047,-0.0023,0.0055,-0.0006,-0.0074,-0.0099,-0.0098,0.0026,0.009,0.0161,0.0382,0.0415,0,0,0,0.0035,0.0065,0.008,0.011,0.0121,0.0154,0.0095,0.0061,0.0032,-0.0069,0.0026,0.0063,0.0104,0.0163,0.019,-0.0093,-0.0094,-0.0094,-0.0094,0.012,0.014,0.022,0.0254,0.0286,0.0269,0.0281,0.0225,0.0135,0.0139,0.017,0.0317,0.0383,0.0404,0.0159,0.016,0.016,0.016,0.0161,0.0252,0.0315,0.034,0.0422,0.0441,0.0493,0.0466,0.0401,0.0398,0.0293,0.0325,0.03,0.0441,0.0171,0.0169,0.0168,0.0167,0.0166,0.0165,0.0323,0.0362,0.0403,0.0527,0.0618,0.063,0.0746,0.0659,0.0534,0.0568,0.06,0.0598,0.0402,0.0574,0.0575,0.0575,0.0576,0.0576,0.0577,0.0377,0.0429,0.053,0.0647,0.074,0.0862,0.0908,0.0927,0.0871,0.0772,0.0772,0.0456,0.0443,0.0425,0.0587,0.0585,0.0584,0.0583,0.0582,0.0477,0.0489,0.065,0.0751,0.0983,0.1245,0.1251,0.1329,0.1266,0.1252,0.0879,0.0869,0.0838,0.0816,0.0807,0.1058,0.1058,0.1058,0.1058,0.0531,0.0554,0.0769,0.0951,0.1194,0.1417,0.1744,0.1672,0.141,0.1212,0.1204,0.1133,0.1112,0.1089,0.106,0.1052,0.1367,0.1368,0.1368,0.06,0.066,0.0822,0.0999,0.1286,0.1655,0.2019,0.1901,0.1461,0.1372,0.118,0.1094,0.0965,0.0942,0.0877,0.0843,0.0817,0,0]}],[{"header":{"parameterUnit":"m.s-1","parameterCategory":2,"la1":30.2992,"la2":30.254,"lo1":-89.0895,"lo2":-89.0443,"dy":0.0025,"dx":0.0025,"nx":19,"ny":19,"refTime":"2026-03-12T03:00:00:Z","depth":"4","parameterNumber":2,"parameterNumberName":"U-component_of_CURRENTS"},"data":[0,0,0,0.181,0.1815,0.2049,0.205,0.2255,0.2256,0,0,0,0,0,0,0,0,0,0,0,0.1737,0.1738,0.181,0.1816,0.2049,0.205,0.2254,0.2256,0,0,0,0,0,0,0,0,0,0,0,0.1736,0.1738,0.174,0.1817,0.2049,0.205,0.2254,0.2102,0,0,0,0,0,0,0,0,0,0,0.1887,0.1838,0.1737,0.174,0.1818,0.2048,0.205,0.2096,0.2111,0.2121,0,0.2171,0,0.2214,0.2268,0.2268,0,0,0,0.1818,0.1825,0.1881,0.1741,0.182,0.2048,0.1944,0.2105,0.2123,0.2142,0.2175,0.2183,0.2217,0.2269,0.227,0.248,0.2481,0,0,0.1805,0.1783,0.1869,0.1892,0.1898,0.1937,0.1952,0.2117,0.2144,0.2176,0.2188,0.2221,0.227,0.2271,0.2479,0.2481,0,0,0,0.1767,0.1774,0.1828,0.1883,0.1931,0.1944,0.1961,0.2137,0.2154,0.2191,0.2223,0.2271,0.2273,0.2478,0.248,0.2555,0,0,0,0.1759,0.1751,0.1823,0.1812,0.1929,0.2052,0.1977,0.2143,0.2163,0.2222,0.2271,0.2275,0.2477,0.2479,0.255,0.2557,0,0,0,0.1723,0.1747,0.1778,0.181,0.1909,0.205,0.2078,0.2149,0.2182,0.2268,0.2275,0.2476,0.2479,0.2546,0.2551,0.2668,0,0,0,0.1685,0.1734,0.1778,0.1855,0.1907,0.2049,0.2078,0.2202,0.228,0.2272,0.2477,0.248,0.2545,0.2547,0.2663,0.2285,0,0,0,0.1712,0.1737,0.178,0.1825,0.1945,0.2016,0.217,0.2284,0.2318,0.2414,0.242,0.2552,0.255,0.2667,0.2434,0,0,0,0,0.1766,0.18,0.1845,0.1936,0.2039,0.217,0.2286,0.2348,0.2487,0.2377,0.2581,0.2578,0.2649,0.2416,0.2492,0.2491,0.2491,0.2491,0.2491,0.1749,0.1818,0.1899,0.2008,0.2115,0.2292,0.2403,0.2514,0.2544,0.2626,0.2663,0.2827,0.2584,0.2702,0.2702,0.2703,0.2703,0.2703,0.2704,0.177,0.1802,0.1931,0.2037,0.2187,0.2337,0.2539,0.2611,0.2798,0.2762,0.283,0.2536,0.2712,0.271,0.2709,0.2708,0.2707,0.2707,0.2706,0.1721,0.1741,0.1842,0.1997,0.2181,0.2377,0.2557,0.2735,0.2852,0.2936,0.2747,0.2899,0.2869,0.3013,0.3014,0.3015,0.3015,0.3016,0.3016,0.1604,0.1699,0.1769,0.1959,0.2068,0.2283,0.26,0.2721,0.2904,0.2786,0.2989,0.2932,0.2922,0.2889,0.3025,0.3023,0.3022,0.3021,0.3021,0.1498,0.1554,0.1633,0.173,0.1954,0.2094,0.2449,0.262,0.2741,0.2729,0.2718,0.2731,0.2675,0.2672,0.2626,0.2691,0.2686,0.2682,0,0.1391,0.1435,0.1491,0.1567,0.1682,0.1947,0.2047,0.2257,0.2436,0.2331,0.2715,0.2693,0.2701,0.2628,0.2619,0.2557,0,0,0,0.1303,0.1344,0.1323,0.1416,0.1519,0.1746,0.2054,0.2044,0.241,0.2428,0.2573,0.2602,0.2851,0.3051,0.2997,0.2985,0.2928,0,0]},{"header":{"parameterUnit":"m.s-1","parameterCategory":2,"la1":30.2992,"la2":30.254,"lo1":-89.0895,"lo2":-89.0443,"dy":0.0025,"dx":0.0025,"nx":19,"ny":19,"refTime":"2026-03-12T03:00:00:Z","depth":"4","parameterNumber":3,"parameterNumberName":"V-component_of_CURRENTS"},"data":[0,0,0,0.0493,0.0492,0.0451,0.045,0.0355,0.0355,0,0,0,0,0,0,0,0,0,0,0,0.0511,0.0511,0.0493,0.0492,0.0451,0.045,0.0356,0.0355,0,0,0,0,0,0,0,0,0,0,0,0.0511,0.0511,0.0511,0.0492,0.0451,0.045,0.0356,0.0395,0,0,0,0,0,0,0,0,0,0,0.0439,0.0469,0.0511,0.0511,0.0492,0.0451,0.045,0.0397,0.0392,0.0366,0,0.0371,0,0.0363,0.0348,0.0348,0,0,0,0.0481,0.0473,0.046,0.0511,0.0492,0.0451,0.0466,0.0395,0.0389,0.0359,0.037,0.0366,0.0361,0.0348,0.0347,0.0302,0.0302,0,0,0.0483,0.0499,0.0464,0.0457,0.0495,0.0468,0.0465,0.0392,0.0392,0.0369,0.0364,0.0359,0.0347,0.0346,0.0302,0.0302,0,0,0,0.0497,0.0501,0.0491,0.0461,0.0458,0.0467,0.0464,0.0395,0.0392,0.0363,0.0358,0.0347,0.0345,0.0301,0.0302,0.0399,0,0,0,0.0498,0.051,0.0492,0.0501,0.046,0.0433,0.0469,0.0397,0.0389,0.0359,0.0347,0.0345,0.0301,0.0302,0.0396,0.0462,0,0,0,0.051,0.0511,0.051,0.0502,0.0488,0.0434,0.0426,0.0395,0.0386,0.0348,0.0344,0.0301,0.0301,0.0393,0.0456,0.0475,0,0,0,0.0521,0.0543,0.0511,0.0535,0.0489,0.049,0.0426,0.041,0.0385,0.0346,0.0301,0.0302,0.0392,0.0452,0.0471,0.0496,0,0,0,0.0557,0.0548,0.0562,0.0533,0.0555,0.0494,0.0508,0.0441,0.038,0.0319,0.0319,0.0397,0.0455,0.0474,0.0524,0,0,0,0,0.058,0.0595,0.0593,0.06,0.058,0.0575,0.0509,0.047,0.0417,0.0368,0.038,0.0413,0.0422,0.0425,0.0304,0.0304,0.0304,0.0304,0.0304,0.065,0.0644,0.0681,0.0675,0.0672,0.0623,0.0605,0.054,0.0469,0.0458,0.0479,0.0545,0.0552,0.0449,0.0449,0.045,0.045,0.045,0.0451,0.0727,0.0761,0.0756,0.0792,0.0777,0.0783,0.0707,0.0653,0.061,0.0547,0.0549,0.0512,0.046,0.0458,0.0457,0.0456,0.0455,0.0454,0.0454,0.0789,0.0808,0.0833,0.0893,0.093,0.0893,0.0922,0.0834,0.0717,0.0723,0.0688,0.0606,0.0612,0.0711,0.0711,0.0712,0.0712,0.0712,0.0713,0.0848,0.0873,0.0948,0.0999,0.1065,0.1105,0.1055,0.1015,0.0889,0.0815,0.0752,0.0633,0.0624,0.0626,0.0719,0.0718,0.0717,0.0716,0.0716,0.0928,0.0948,0.1062,0.1143,0.1273,0.13,0.1259,0.1119,0.1075,0.0979,0.0839,0.0831,0.0796,0.0783,0.0789,0.0934,0.0935,0.0936,0,0.099,0.1002,0.1174,0.1318,0.1431,0.1425,0.1381,0.1284,0.1091,0.1082,0.1073,0.0923,0.0912,0.0879,0.0868,0.088,0,0,0,0.1053,0.11,0.1237,0.137,0.1509,0.1432,0.1363,0.1299,0.1125,0.1047,0.0953,0.0948,0.0864,0.0736,0.0663,0.0653,0.0652,0,0]}]]